Time,TemperatureF,DewpointF,PressureIn,WindDirection,WindDirectionDegrees,WindSpeedMPH,WindSpeedGustMPH,Humidity,HourlyPrecipIn,Conditions,Clouds,dailyrainin,SoftwareType,DateUTC
2013-03-10 00:02:00,43.0,-99.9,-100.00,ESE,115,6.0,17.0,-999,-99.99,,,-99.99,,2013-03-10 05:02:00,
2013-03-10 00:11:00,44.0,-99.9,-100.00,SE,124,3.0,12.0,-999,-99.99,,,-99.99,,2013-03-10 05:11:00,
2013-03-10 00:22:00,44.0,-99.9,-100.00,ESE,118,3.0,11.0,-999,-99.99,,,-99.99,,2013-03-10 05:22:00,
2013-03-10 00:32:00,44.0,-99.9,-100.00,ESE,118,3.0,11.0,-999,-99.99,,,-99.99,,2013-03-10 05:32:00,
2013-03-10 00:42:00,44.0,-99.9,-100.00,SE,124,3.0,12.0,-999,-99.99,,,-99.99,,2013-03-10 05:42:00,
2013-03-10 00:52:00,44.0,-99.9,-100.00,SE,124,3.0,12.0,-999,-99.99,,,-99.99,,2013-03-10 05:52:00,
2013-03-10 01:02:00,44.0,-99.9,-100.00,SE,124,3.0,12.0,-999,-99.99,,,-99.99,,2013-03-10 06:02:00,
2013-03-10 01:11:00,45.0,-99.9,-100.00,ESE,119,5.0,13.0,-999,-99.99,,,-99.99,,2013-03-10 06:11:00,
2013-03-10 01:22:00,45.0,-99.9,-100.00,ESE,117,5.0,11.0,-999,-99.99,,,-99.99,,2013-03-10 06:22:00,
2013-03-10 01:32:00,45.0,-99.9,-100.00,ESE,119,5.0,13.0,-999,-99.99,,,-99.99,,2013-03-10 06:32:00,
2013-03-10 01:42:00,45.0,-99.9,-100.00,ESE,119,5.0,13.0,-999,-99.99,,,-99.99,,2013-03-10 06:42:00,
2013-03-10 01:52:00,45.0,-99.9,-100.00,SE,126,4.0,12.0,-999,-99.99,,,-99.99,,2013-03-10 06:52:00,
2013-03-10 03:02:00,45.0,-99.9,-100.00,SE,126,4.0,12.0,-999,-99.99,,,-99.99,,2013-03-10 07:02:00,
2013-03-10 03:11:00,45.0,-99.9,-100.00,SE,126,4.0,12.0,-999,-99.99,,,-99.99,,2013-03-10 07:11:00,
2013-03-10 03:21:00,45.0,-99.9,-100.00,ESE,116,3.0,11.0,-999,-99.99,,,-99.99,,2013-03-10 07:21:00,
2013-03-10 03:32:00,45.0,-99.9,-100.00,ESE,116,3.0,11.0,-999,-99.99,,,-99.99,,2013-03-10 07:32:00,
2013-03-10 03:42:00,45.0,-99.9,-100.00,ESE,116,3.0,11.0,-999,-99.99,,,-99.99,,2013-03-10 07:42:00,
2013-03-10 03:52:00,45.0,-99.9,-100.00,SE,126,4.0,12.0,-999,-99.99,,,-99.99,,2013-03-10 07:52:00,
2013-03-10 04:02:00,45.0,-99.9,-100.00,ESE,123,2.0,12.0,-999,-99.99,,,-99.99,,2013-03-10 08:02:00,
2013-03-10 04:12:00,45.0,-99.9,-100.00,ESE,123,2.0,12.0,-999,-99.99,,,-99.99,,2013-03-10 08:12:00,
2013-03-10 04:21:00,46.0,-99.9,-100.00,SE,144,6.0,11.0,-999,-99.99,,,-99.99,,2013-03-10 08:21:00,
2013-03-10 04:32:00,45.0,-99.9,-100.00,ESE,123,2.0,12.0,-999,-99.99,,,-99.99,,2013-03-10 08:32:00,
2013-03-10 04:42:00,45.0,-99.9,-100.00,ESE,123,2.0,12.0,-999,-99.99,,,-99.99,,2013-03-10 08:42:00,
2013-03-10 04:52:00,45.0,-99.9,-100.00,ESE,123,2.0,12.0,-999,-99.99,,,-99.99,,2013-03-10 08:52:00,
2013-03-10 05:02:00,45.0,-99.9,-100.00,ESE,123,2.0,12.0,-999,-99.99,,,-99.99,,2013-03-10 09:02:00,
2013-03-10 05:11:00,48.0,-99.9,-100.00,SSE,157,9.0,14.0,-999,-99.99,,,-99.99,,2013-03-10 09:11:00,
2013-03-10 05:21:00,49.0,-99.9,-100.00,South,175,12.0,20.0,-999,-99.99,,,-99.99,,2013-03-10 09:21:00,
2013-03-10 05:32:00,49.0,-99.9,-100.00,South,175,12.0,20.0,-999,-99.99,,,-99.99,,2013-03-10 09:32:00,
2013-03-10 05:42:00,49.0,-99.9,-100.00,South,175,12.0,20.0,-999,-99.99,,,-99.99,,2013-03-10 09:42:00,
2013-03-10 05:52:00,48.0,-99.9,-100.00,SSE,157,9.0,14.0,-999,-99.99,,,-99.99,,2013-03-10 09:52:00,
2013-03-10 06:02:00,44.0,-99.9,-100.00,SE,130,4.0,21.0,-999,-99.99,,,-99.99,,2013-03-10 10:02:00,
2013-03-10 06:11:00,44.0,-99.9,-100.00,SE,130,4.0,21.0,-999,-99.99,,,-99.99,,2013-03-10 10:11:00,
2013-03-10 06:22:00,42.0,-99.9,-100.00,SE,142,5.0,9.0,-999,-99.99,,,-99.99,,2013-03-10 10:22:00,
2013-03-10 06:32:00,42.0,-99.9,-100.00,SE,142,5.0,9.0,-999,-99.99,,,-99.99,,2013-03-10 10:32:00,
2013-03-10 06:42:00,42.0,-99.9,-100.00,SE,142,5.0,9.0,-999,-99.99,,,-99.99,,2013-03-10 10:42:00,
2013-03-10 06:52:00,44.0,-99.9,-100.00,SE,130,4.0,21.0,-999,-99.99,,,-99.99,,2013-03-10 10:52:00,
2013-03-10 07:02:00,44.0,-99.9,-100.00,SE,130,4.0,21.0,-999,-99.99,,,-99.99,,2013-03-10 11:02:00,
2013-03-10 07:12:00,44.0,-99.9,-100.00,SE,130,4.0,21.0,-999,-99.99,,,-99.99,,2013-03-10 11:12:00,
2013-03-10 07:22:00,43.0,-99.9,-100.00,SE,125,7.0,11.0,-999,-99.99,,,-99.99,,2013-03-10 11:22:00,
2013-03-10 07:32:00,43.0,-99.9,-100.00,SE,125,7.0,11.0,-999,-99.99,,,-99.99,,2013-03-10 11:32:00,
2013-03-10 07:42:00,43.0,-99.9,-100.00,SE,125,7.0,11.0,-999,-99.99,,,-99.99,,2013-03-10 11:42:00,
2013-03-10 07:52:00,42.0,-99.9,-100.00,SE,135,8.0,14.0,-999,-99.99,,,-99.99,,2013-03-10 11:52:00,
2013-03-10 08:02:00,42.0,-99.9,-100.00,SE,135,8.0,14.0,-999,-99.99,,,-99.99,,2013-03-10 12:02:00,
2013-03-10 08:11:00,42.0,-99.9,-100.00,SE,135,8.0,14.0,-999,-99.99,,,-99.99,,2013-03-10 12:11:00,
2013-03-10 08:21:00,41.0,-99.9,-100.00,ESE,102,4.0,7.0,-999,-99.99,,,-99.99,,2013-03-10 12:21:00,
2013-03-10 08:32:00,41.0,-99.9,-100.00,ESE,102,4.0,7.0,-999,-99.99,,,-99.99,,2013-03-10 12:32:00,
2013-03-10 08:42:00,42.0,-99.9,-100.00,East,96,3.0,16.0,-999,-99.99,,,-99.99,,2013-03-10 12:42:00,
2013-03-10 08:52:00,42.0,-99.9,-100.00,East,96,3.0,16.0,-999,-99.99,,,-99.99,,2013-03-10 12:52:00,
2013-03-10 09:01:00,43.0,-99.9,-100.00,SE,126,4.0,8.0,-999,-99.99,,,-99.99,,2013-03-10 13:01:00,
2013-03-10 09:11:00,43.0,-99.9,-100.00,SE,126,4.0,8.0,-999,-99.99,,,-99.99,,2013-03-10 13:11:00,
2013-03-10 09:21:00,43.0,-99.9,-100.00,ESE,110,3.0,6.0,-999,-99.99,,,-99.99,,2013-03-10 13:21:00,
2013-03-10 09:32:00,43.0,-99.9,-100.00,ESE,110,3.0,6.0,-999,-99.99,,,-99.99,,2013-03-10 13:32:00,
2013-03-10 09:42:00,43.0,-99.9,-100.00,ESE,110,3.0,6.0,-999,-99.99,,,-99.99,,2013-03-10 13:42:00,
2013-03-10 09:52:00,43.0,-99.9,-100.00,ESE,110,3.0,6.0,-999,-99.99,,,-99.99,,2013-03-10 13:52:00,
2013-03-10 10:02:00,43.0,-99.9,-100.00,SE,126,4.0,8.0,-999,-99.99,,,-99.99,,2013-03-10 14:02:00,
2013-03-10 10:12:00,44.0,-99.9,-100.00,ESE,120,4.0,9.0,-999,-99.99,,,-99.99,,2013-03-10 14:12:00,
2013-03-10 10:22:00,44.0,-99.9,-100.00,ESE,102,3.0,9.0,-999,-99.99,,,-99.99,,2013-03-10 14:22:00,
2013-03-10 10:32:00,44.0,-99.9,-100.00,ESE,120,4.0,9.0,-999,-99.99,,,-99.99,,2013-03-10 14:32:00,
2013-03-10 10:42:00,44.0,-99.9,-100.00,ESE,120,4.0,9.0,-999,-99.99,,,-99.99,,2013-03-10 14:42:00,
2013-03-10 10:52:00,44.0,-99.9,-100.00,ESE,120,4.0,9.0,-999,-99.99,,,-99.99,,2013-03-10 14:52:00,
2013-03-10 11:01:00,46.0,-99.9,-100.00,SE,142,5.0,13.0,-999,-99.99,,,-99.99,,2013-03-10 15:01:00,
2013-03-10 11:11:00,46.0,-99.9,-100.00,SE,142,5.0,13.0,-999,-99.99,,,-99.99,,2013-03-10 15:11:00,
2013-03-10 11:21:00,46.0,-99.9,-100.00,SE,144,3.0,9.0,-999,-99.99,,,-99.99,,2013-03-10 15:21:00,
2013-03-10 11:32:00,46.0,-99.9,-100.00,SE,144,3.0,9.0,-999,-99.99,,,-99.99,,2013-03-10 15:32:00,
2013-03-10 11:42:00,46.0,-99.9,-100.00,SE,142,5.0,13.0,-999,-99.99,,,-99.99,,2013-03-10 15:42:00,
2013-03-10 11:52:00,46.0,-99.9,-100.00,SE,142,5.0,13.0,-999,-99.99,,,-99.99,,2013-03-10 15:52:00,
2013-03-10 12:02:00,46.0,-99.9,-100.00,SE,142,5.0,13.0,-999,-99.99,,,-99.99,,2013-03-10 16:02:00,
2013-03-10 12:12:00,46.0,-99.9,-100.00,SE,142,5.0,13.0,-999,-99.99,,,-99.99,,2013-03-10 16:12:00,
2013-03-10 12:22:00,50.0,-99.9,-100.00,SSE,158,11.0,21.0,-999,-99.99,,,-99.99,,2013-03-10 16:22:00,
2013-03-10 12:32:00,50.0,-99.9,-100.00,SSE,147,9.0,21.0,-999,-99.99,,,-99.99,,2013-03-10 16:32:00,
2013-03-10 12:42:00,50.0,-99.9,-100.00,SSE,147,9.0,21.0,-999,-99.99,,,-99.99,,2013-03-10 16:42:00,
2013-03-10 12:52:00,50.0,-99.9,-100.00,SSE,147,9.0,21.0,-999,-99.99,,,-99.99,,2013-03-10 16:52:00,
2013-03-10 13:01:00,50.0,-99.9,-100.00,SSE,147,9.0,21.0,-999,-99.99,,,-99.99,,2013-03-10 17:01:00,
2013-03-10 13:11:00,50.0,-99.9,-100.00,SSE,156,9.0,27.0,-999,-99.99,,,-99.99,,2013-03-10 17:11:00,
2013-03-10 13:21:00,49.0,-99.9,-100.00,SSE,149,5.0,12.0,-999,-99.99,,,-99.99,,2013-03-10 17:21:00,
2013-03-10 13:32:00,49.0,-99.9,-100.00,SSE,149,5.0,12.0,-999,-99.99,,,-99.99,,2013-03-10 17:32:00,
2013-03-10 13:41:00,49.0,-99.9,-100.00,SSE,149,5.0,12.0,-999,-99.99,,,-99.99,,2013-03-10 17:41:00,
2013-03-10 13:52:00,50.0,-99.9,-100.00,SSE,156,9.0,27.0,-999,-99.99,,,-99.99,,2013-03-10 17:52:00,
2013-03-10 14:01:00,50.0,-99.9,-100.00,SSE,156,9.0,27.0,-999,-99.99,,,-99.99,,2013-03-10 18:01:00,
2013-03-10 14:12:00,50.0,-99.9,-100.00,SSE,156,9.0,27.0,-999,-99.99,,,-99.99,,2013-03-10 18:12:00,
2013-03-10 14:22:00,53.0,-99.9,-100.00,SSE,168,5.0,14.0,-999,-99.99,,,-99.99,,2013-03-10 18:22:00,
2013-03-10 14:32:00,53.0,-99.9,-100.00,SSE,168,5.0,14.0,-999,-99.99,,,-99.99,,2013-03-10 18:32:00,
2013-03-10 14:42:00,53.0,-99.9,-100.00,SSE,168,5.0,14.0,-999,-99.99,,,-99.99,,2013-03-10 18:42:00,
2013-03-10 14:53:00,52.0,-99.9,-100.00,SSE,152,7.0,14.0,-999,-99.99,,,-99.99,,2013-03-10 18:53:00,
2013-03-10 15:02:00,52.0,-99.9,-100.00,SSE,152,7.0,14.0,-999,-99.99,,,-99.99,,2013-03-10 19:02:00,
2013-03-10 15:12:00,53.0,-99.9,-100.00,SSE,160,6.0,15.0,-999,-99.99,,,-99.99,,2013-03-10 19:12:00,
2013-03-10 15:22:00,54.0,-99.9,-100.00,SE,138,5.0,11.0,-999,-99.99,,,-99.99,,2013-03-10 19:22:00,
2013-03-10 15:32:00,53.0,-99.9,-100.00,SSE,160,6.0,15.0,-999,-99.99,,,-99.99,,2013-03-10 19:32:00,
2013-03-10 15:42:00,53.0,-99.9,-100.00,SSE,160,6.0,15.0,-999,-99.99,,,-99.99,,2013-03-10 19:42:00,
2013-03-10 15:53:00,53.0,-99.9,-100.00,SSE,160,6.0,15.0,-999,-99.99,,,-99.99,,2013-03-10 19:53:00,
2013-03-10 16:02:00,53.0,-99.9,-100.00,SSE,160,6.0,15.0,-999,-99.99,,,-99.99,,2013-03-10 20:02:00,
2013-03-10 16:13:00,53.0,-99.9,-100.00,SSE,160,6.0,15.0,-999,-99.99,,,-99.99,,2013-03-10 20:13:00,
2013-03-10 16:22:00,55.0,-99.9,-100.00,SE,145,3.0,12.0,-999,-99.99,,,-99.99,,2013-03-10 20:22:00,
2013-03-10 16:33:00,55.0,-99.9,-100.00,SE,145,3.0,12.0,-999,-99.99,,,-99.99,,2013-03-10 20:33:00,
2013-03-10 16:53:00,55.0,-99.9,-100.00,SE,145,3.0,12.0,-999,-99.99,,,-99.99,,2013-03-10 20:53:00,
2013-03-10 17:02:00,55.0,-99.9,-100.00,SE,145,3.0,12.0,-999,-99.99,,,-99.99,,2013-03-10 21:02:00,
2013-03-10 17:12:00,56.0,-99.9,-100.00,East,92,2.0,10.0,-999,-99.99,,,-99.99,,2013-03-10 21:12:00,
2013-03-10 17:23:00,57.0,-99.9,-100.00,SE,130,2.0,7.0,-999,-99.99,,,-99.99,,2013-03-10 21:23:00,
2013-03-10 17:33:00,56.0,-99.9,-100.00,East,92,2.0,10.0,-999,-99.99,,,-99.99,,2013-03-10 21:33:00,
2013-03-10 17:43:00,56.0,-99.9,-100.00,East,92,2.0,10.0,-999,-99.99,,,-99.99,,2013-03-10 21:43:00,
2013-03-10 17:53:00,56.0,-99.9,-100.00,East,92,2.0,10.0,-999,-99.99,,,-99.99,,2013-03-10 21:53:00,
2013-03-10 18:03:00,56.0,-99.9,-100.00,East,92,2.0,10.0,-999,-99.99,,,-99.99,,2013-03-10 22:03:00,
2013-03-10 18:12:00,57.0,-99.9,-100.00,SE,128,6.0,10.0,-999,-99.99,,,-99.99,,2013-03-10 22:12:00,
2013-03-10 18:23:00,56.0,-99.9,-100.00,East,97,2.0,7.0,-999,-99.99,,,-99.99,,2013-03-10 22:23:00,
2013-03-10 18:33:00,56.0,-99.9,-100.00,East,97,2.0,7.0,-999,-99.99,,,-99.99,,2013-03-10 22:33:00,
2013-03-10 18:43:00,57.0,-99.9,-100.00,SE,128,6.0,10.0,-999,-99.99,,,-99.99,,2013-03-10 22:43:00,
2013-03-10 18:53:00,57.0,-99.9,-100.00,SE,128,6.0,10.0,-999,-99.99,,,-99.99,,2013-03-10 22:53:00,
2013-03-10 19:03:00,55.0,-99.9,-100.00,SE,139,2.0,10.0,-999,-99.99,,,-99.99,,2013-03-10 23:03:00,
2013-03-10 19:13:00,55.0,-99.9,-100.00,SE,139,2.0,10.0,-999,-99.99,,,-99.99,,2013-03-10 23:13:00,
2013-03-10 19:23:00,55.0,-99.9,-100.00,ENE,63,3.0,10.0,-999,-99.99,,,-99.99,,2013-03-10 23:23:00,
2013-03-10 19:33:00,55.0,-99.9,-100.00,SE,139,2.0,10.0,-999,-99.99,,,-99.99,,2013-03-10 23:33:00,
2013-03-10 19:43:00,55.0,-99.9,-100.00,SE,139,2.0,10.0,-999,-99.99,,,-99.99,,2013-03-10 23:43:00,
2013-03-10 19:53:00,55.0,-99.9,-100.00,SE,139,2.0,10.0,-999,-99.99,,,-99.99,,2013-03-10 23:53:00,
2013-03-10 20:03:00,55.0,-99.9,-100.00,SE,139,2.0,10.0,-999,-99.99,,,-99.99,,2013-03-11 00:03:00,
2013-03-10 20:13:00,56.0,-99.9,-100.00,SSE,148,4.0,14.0,-999,-99.99,,,-99.99,,2013-03-11 00:13:00,
2013-03-10 20:23:00,55.0,-99.9,-100.00,ESE,123,5.0,13.0,-999,-99.99,,,-99.99,,2013-03-11 00:23:00,
2013-03-10 20:34:00,55.0,-99.9,-100.00,ESE,123,5.0,13.0,-999,-99.99,,,-99.99,,2013-03-11 00:34:00,
2013-03-10 20:43:00,56.0,-99.9,-100.00,SSE,148,4.0,14.0,-999,-99.99,,,-99.99,,2013-03-11 00:43:00,
2013-03-10 20:53:00,56.0,-99.9,-100.00,SSE,148,4.0,14.0,-999,-99.99,,,-99.99,,2013-03-11 00:53:00,
2013-03-10 21:00:00,54.0,-99.9,-100.00,SSE,155,6.0,16.0,-999,-99.99,,,-99.99,,2013-03-11 01:00:00,
2013-03-10 21:03:00,56.0,-99.9,-100.00,SSE,148,4.0,14.0,-999,-99.99,,,-99.99,,2013-03-11 01:03:00,
2013-03-10 21:13:00,56.0,-99.9,-100.00,SSE,148,4.0,14.0,-999,-99.99,,,-99.99,,2013-03-11 01:13:00,
2013-03-10 21:23:00,54.0,-99.9,-100.00,SSE,155,6.0,16.0,-999,-99.99,,,-99.99,,2013-03-11 01:23:00,
2013-03-10 21:33:00,54.0,-99.9,-100.00,SSE,155,6.0,16.0,-999,-99.99,,,-99.99,,2013-03-11 01:33:00,
2013-03-10 21:43:00,54.0,-99.9,-100.00,SSE,155,6.0,16.0,-999,-99.99,,,-99.99,,2013-03-11 01:43:00,
2013-03-10 21:54:00,54.0,-99.9,-100.00,SSE,155,6.0,16.0,-999,-99.99,,,-99.99,,2013-03-11 01:54:00,
2013-03-10 22:00:00,54.0,-99.9,-100.00,SSE,147,6.0,12.0,-999,-99.99,,,-99.99,,2013-03-11 02:00:00,
2013-03-10 22:23:00,54.0,-99.9,-100.00,SSE,147,6.0,12.0,-999,-99.99,,,-99.99,,2013-03-11 02:23:00,
2013-03-10 22:33:00,54.0,-99.9,-100.00,SSE,147,6.0,12.0,-999,-99.99,,,-99.99,,2013-03-11 02:33:00,
2013-03-10 22:43:00,54.0,-99.9,-100.00,SSE,147,6.0,12.0,-999,-99.99,,,-99.99,,2013-03-11 02:43:00,
2013-03-10 22:53:00,54.0,-99.9,-100.00,SSE,147,6.0,12.0,-999,-99.99,,,-99.99,,2013-03-11 02:53:00,
2013-03-10 23:13:00,56.0,-99.9,-100.00,SSE,160,5.0,15.0,-999,-99.99,,,-99.99,,2013-03-11 03:13:00,
2013-03-10 23:22:00,55.0,-99.9,-100.00,SE,146,7.0,13.0,-999,-99.99,,,-99.99,,2013-03-11 03:22:00,
2013-03-10 23:32:00,55.0,-99.9,-100.00,SE,146,7.0,13.0,-999,-99.99,,,-99.99,,2013-03-11 03:32:00,
2013-03-10 23:43:00,56.0,-99.9,-100.00,SSE,160,5.0,15.0,-999,-99.99,,,-99.99,,2013-03-11 03:43:00,
2013-03-10 23:53:00,56.0,-99.9,-100.00,SSE,160,5.0,15.0,-999,-99.99,,,-99.99,,2013-03-11 03:53:00,